TimeCST,TemperatureF,Dew PointF,Humidity,Sea Level PressureIn,VisibilityMPH,Wind Direction,Wind SpeedMPH,Gust SpeedMPH,PrecipitationIn,Events,Conditions,WindDirDegrees,DateUTC
12:54 AM,48.9,35.1,59,30.34,10.0,NNE,5.8,-,N/A,,Clear,30,2012-03-10 06:54:00
1:54 AM,50.0,34.0,54,30.32,10.0,NNE,5.8,-,N/A,,Clear,30,2012-03-10 07:54:00
2:54 AM,48.9,33.1,54,30.29,10.0,NE,9.2,-,N/A,,Clear,50,2012-03-10 08:54:00
3:54 AM,46.0,34.0,63,30.30,10.0,ENE,5.8,-,N/A,,Clear,60,2012-03-10 09:54:00
4:54 AM,44.1,33.1,65,30.30,10.0,NE,5.8,-,N/A,,Clear,40,2012-03-10 10:54:00
5:54 AM,44.1,32.0,63,30.33,10.0,NE,3.5,-,N/A,,Clear,50,2012-03-10 11:54:00
6:54 AM,43.0,32.0,65,30.35,10.0,NE,4.6,-,N/A,,Clear,50,2012-03-10 12:54:00
7:54 AM,48.0,32.0,54,30.37,10.0,NE,8.1,-,N/A,,Clear,50,2012-03-10 13:54:00
8:54 AM,53.1,32.0,45,30.37,10.0,NE,6.9,-,N/A,,Clear,50,2012-03-10 14:54:00
9:54 AM,57.9,32.0,37,30.36,10.0,East,9.2,-,N/A,,Clear,80,2012-03-10 15:54:00
10:54 AM,62.1,32.0,32,30.35,10.0,Variable,3.5,-,N/A,,Clear,0,2012-03-10 16:54:00
11:54 AM,64.0,32.0,30,30.32,10.0,Calm,Calm,-,N/A,,Clear,0,2012-03-10 17:54:00
12:54 PM,64.9,37.9,37,30.28,10.0,North,9.2,-,N/A,,Clear,10,2012-03-10 18:54:00
1:54 PM,69.1,37.0,31,30.25,10.0,Calm,Calm,-,N/A,,Clear,0,2012-03-10 19:54:00
2:54 PM,70.0,39.0,32,30.22,10.0,Variable,3.5,-,N/A,,Clear,0,2012-03-10 20:54:00
3:54 PM,69.1,39.9,35,30.20,10.0,ENE,9.2,-,N/A,,Clear,60,2012-03-10 21:54:00
4:54 PM,68.0,43.0,40,30.21,10.0,East,3.5,-,N/A,,Clear,80,2012-03-10 22:54:00
5:54 PM,63.0,48.0,58,30.22,10.0,Calm,Calm,-,N/A,,Clear,0,2012-03-10 23:54:00
6:54 PM,57.9,48.9,72,30.24,10.0,Calm,Calm,-,N/A,,Clear,0,2012-03-11 00:54:00
7:54 PM,55.9,48.9,77,30.25,10.0,East,3.5,-,N/A,,Clear,80,2012-03-11 01:54:00
8:54 PM,61.0,48.0,62,30.25,10.0,East,4.6,-,N/A,,Clear,100,2012-03-11 02:54:00
9:54 PM,63.0,48.0,58,30.23,10.0,ESE,9.2,-,N/A,,Clear,110,2012-03-11 03:54:00
10:54 PM,61.0,48.9,64,30.22,10.0,SE,5.8,-,N/A,,Clear,130,2012-03-11 04:54:00
11:54 PM,59.0,48.0,67,30.22,10.0,ESE,3.5,-,N/A,,Clear,120,2012-03-11 05:54:00